Location: Fort Wayne
(41.1310°N, 85.1290°W)
Time: 03:03:47
(UTC-04:00)

IDEFIX/ARIANE 42P - Visible Passes

Search period start: 25 October 2014 00:00
Search period end: 03 November 2014 23:00
Orbit: 786 x 803 km, 98.3° (Epoch: 23 October)

Date Brightness Start Highest point End Pass type
(mag) Time Alt. Az. Time Alt. Az. Time Alt. Az.
25 Oct 3.1 20:36:06 39° NE 20:36:06 39° NE 20:40:25 10° N visible
25 Oct 4.8 22:16:57 22° WNW 22:16:57 22° WNW 22:19:34 10° NW visible
26 Oct 3.7 20:07:48 23° ENE 20:07:48 23° ENE 20:11:42 10° NNE visible
26 Oct 4.0 21:48:38 34° NW 21:48:38 34° NW 21:51:59 10° NNW visible
27 Oct 4.2 19:39:30 13° ENE 19:39:51 14° ENE 19:42:19 10° NNE visible
27 Oct 3.3 21:20:20 47° NNW 21:20:20 47° NNW 21:24:02 10° NNW visible
28 Oct 3.1 20:52:01 43° NNE 20:52:01 43° NNE 20:55:47 10° N visible
28 Oct 5.3 22:32:51 14° WNW 22:32:51 14° WNW 22:34:09 10° NW visible
29 Oct 3.5 20:23:43 29° NE 20:23:43 29° NE 20:27:16 10° N visible
29 Oct 4.7 22:04:33 23° NW 22:04:33 23° NW 22:06:55 10° NNW visible
30 Oct 4.0 19:55:24 18° NE 19:55:24 18° NE 19:58:20 10° NNE visible
30 Oct 4.0 21:36:14 33° NW 21:36:14 33° NW 21:39:09 10° NNW visible
31 Oct 4.5 19:27:05 10° ENE 19:27:06 10° ENE 19:27:49 10° NE visible
31 Oct 3.5 21:07:55 37° N 21:07:55 37° N 21:11:03 10° N visible
01 Nov 3.6 20:39:36 31° NNE 20:39:36 31° NNE 20:42:42 10° N visible
01 Nov 5.2 22:20:26 15° NW 22:20:26 15° NW 22:21:42 10° NW visible
02 Nov 3.9 19:11:17 22° NE 19:11:17 22° NE 19:14:01 10° NNE visible
02 Nov 4.6 20:52:07 23° NW 20:52:07 23° NW 20:54:10 10° NNW visible
03 Nov 4.3 18:42:57 14° NE 18:42:57 14° NE 18:44:45 10° NNE visible
03 Nov 4.1 20:23:47 28° NNW 20:23:47 28° NNW 20:26:14 10° NNW visible
